{"data":{"norad_id":60262,"intl_designator":"2024-131H","name":"STARLINK-32163","alt_names":[],"object_type":"PAYLOAD","status":"ACTIVE","operator":null,"country":"US","launch_date":"2024-07-27","launch_site_code":"AFETR","launch_vehicle":null,"mission":null,"orbit_class":"UNKNOWN","rcs_meters":null,"size_class":null,"mass_kg":null,"dimensions":null,"purposes":["comms"],"wikipedia_slug":null,"has_3d_model":false,"image_url":null,"decayed_at":null,"tle_current":{"epoch":"2026-09-21T21:43:47.119008Z","epoch_age_seconds":60088,"freshness":"FRESH","line1":"1 60262U 24131H   26264.90540647 -.00000133  00000+0  74774-5 0  9993","line2":"2 60262  53.1601 219.3604 0001263  87.3064 272.8082 15.31695256121780","mean_motion":15.31695256,"eccentricity":0.0001263,"inclination_deg":53.1601,"raan_deg":219.3604,"arg_perigee_deg":87.3064,"mean_anomaly_deg":272.8082,"bstar":7.4774e-6,"rev_number":12178,"period_min":94.013479140788,"perigee_km":469.8891219287,"apogee_km":471.61915182988,"semimajor_km":6848.8911368793,"source":"CELESTRAK","updated_at":"2026-09-22T09:00:49.187496Z"}}}